TITAN 3C TRANSTAGE DEB, 59983

Orbit data source: Space-Track

TITAN 3C TRANSTAGE DEB, 59983 is space debris in GEO originally from a launch on Thu, 26 Sep 1968 UTC launched from the Air Force Eastern Test Range (AFETR). Debris objects in space refer to the collection of defunct objects orbiting the Earth. Examples of debris include non-operational satellites, rocket bodies, and fragments generated from explosions, collisions, or faulty payload assembly.

Not visible in the next 10 days
Identifier
59983, 1968-081AR
Orbit
GEO
Country
Flag of USUS
Related business
Manufacturer
Unknown
Mission
Spacecraft
Bus & Motor
Unknown
Mass
Unknown
Launch date (UTC)
1968-09-26 (57 years ago)
Launch vehicle
Unknown
Launch site
Air Force Eastern Test Range (AFETR)
Object type
Payload
Rocket body
Debris
Shape & HBR
Unknown shape, 1.1 m
Radar Cross Section
RCS unknown

Expand to show TLE details & history
Last TLE update: 2 days ago

TLE from 2 days ago
0 TITAN 3C TRANSTAGE DEB
1 59983U 68081AR  25345.71839457 -.00000332  00000-0  00000-0 0  9999
2 59983   2.2874  57.7876 0196739  13.9223 346.2112  1.02077449  6047
Epoch: 2025-12-11T17:14Z
TLE epoch observation values (Epoch: 2025-12-11T17:14:29.290Z)
Latitude
-0°
Longitude
78.07089°
Altitude
34,489.362 km
Speed
3.153 km/s
True Right ascension
03h 49m 27s
True Declination
0° 00' 00"
Sunlit
Object was in daylight at epoch
Visualization orbit readout
Latitude
Unknown
Longitude
Unknown
Altitude
Unknown
Speed
Unknown
Apparent Right ascension
Unknown
Apparent Declination
Unknown
Sunlit
N/A
Visualization observer readout
Local Sidereal Time
01:38:49
Azimuth
Unknown
Elevation
Unknown
Doppler factor
Unknown
Orbital elements
Apogee altitude
36,108.713 km
Perigee altitude
34,469.205 km
Semi-major axis
41,667.096 km
Eccentricity
0.01967
Inclination
2.2874°
RAAN
57.7876°
Arg. of periapsis
13.9223°
True anomaly
345.66074°
Mean anomaly
346.2112°
Eccentric anomaly
345.9373°
Mean motion
0.25518 °/min
Orbital period
1,410.75 mins
BSTAR
0
Loading maneuver chart data...
Computing Atmospheric mass density...

Documentation

Showing up to 5 results
|